Tracking 30995 objects as of 5-Jul-2025
HD Live streaming from Space Station
objects crossing your sky now

HGS 4 (GALAXY 4)

Track HGS 4 (GALAXY 4) now!
HGS 4 (GALAXY 4) is classified as:


NORAD ID: 22694
Int'l Code: 1993-039A
Perigee: 35,736.0 km
Apogee: 35,847.4 km
Inclination: 14.6 °
Period: 1,436.0 minutes
Semi major axis: 42162 km
RCS: 28.88 m2 (large)
Launch date: June 25, 1993
Source: United States (US)
Launch site: FRENCH GUIANA (FRGUI)
Your satellite tracking list
YAOGAN 12
Track 1 satellite(s)




NASA's NSSDC Master Catalog

Two Line Element Set (TLE):
1 22694U 93039A   25186.64609797 -.00000128  00000-0  00000+0 0  9998
2 22694  14.5880 357.7705 0013215  49.4574 186.4909  1.00279149115524
Source of the keplerian elements: AFSPC